Weather History for KBJC - July, 2012

Change the Weather History Date:

Saturday, July 21, 2012

  Actual Average Record
Temperature  
Mean Temperature 82 °F -  
Max Temperature 95 °F 86 °F 100 °F (2005)
Min Temperature 68 °F 62 °F 46 °F (1988)
Cooling Degree Days 16    
Growing Degree Days 32 (Base 50)    
Moisture  
Dew Point 39 °F    
Average Humidity 25    
Maximum Humidity 40    
Minimum Humidity 10    
Precipitation  
Precipitation 0.00 in - - ()
Sea Level Pressure  
Sea Level Pressure 30.22 in    
Wind  
Wind Speed 4 mph (NW)    
Max Wind Speed 16 mph    
Max Gust Speed 23 mph    
Visibility 10 miles    
Events Thunderstorm    
Averages and records for this station are not official NWS values.
T = Trace of Precipitation, MM = Missing Value Source: NWS Daily Summary

Daily Weather History Graph

Daily Weather History Graph

Search for Another Location

Airport or City:

Trip Planner

Search our weather history database for the weather conditions in past years. The results will help you decide how hot, cold, wet, or windy it might be!

Date:

Astronomy

Jul. 21, 2012 Rise Set
Actual Time 5:49 AM MDT 8:23 PM MDT
Civil Twilight 5:18 AM MDT 8:54 PM MDT
Nautical Twilight 4:39 AM MDT 9:33 PM MDT
Astronomical Twilight 3:56 AM MDT 10:16 PM MDT
Moon 8:33 AM MDT (7/21) 9:37 PM MDT (7/21)
Length of Visible Light 15h 36m
Length of Day
14h 33m
Waxing Crescent, 7% of the Moon is Illuminated
Jul 21
Waxing Crescent
Jul 26
First Quarter
Aug 1
Full
Aug 9
Last Quarter
Aug 17
New

Hourly Weather History & Observations

Time (MDT) Temp. Dew Point Humidity Pressure Visibility Wind Dir Wind Speed Gust Speed Precip Events Conditions
12:15 AM 73.4 °F 37.4 °F 27% 30.23 in 10.0 mi Calm Calm - N/A   Clear
12:35 AM 73.4 °F 37.4 °F 27% 30.23 in 10.0 mi Calm Calm - N/A   Clear
12:55 AM 73.4 °F 37.4 °F 27% 30.23 in 10.0 mi West 4.6 mph - N/A   Clear
1:15 AM 69.8 °F 41.0 °F 35% 30.23 in 10.0 mi West 5.8 mph - N/A   Clear
1:35 AM 77.0 °F 35.6 °F 22% 30.23 in 10.0 mi Calm Calm - N/A   Clear
1:54 AM 77.0 °F 35.6 °F 22% 30.22 in 10.0 mi Calm Calm - N/A   Clear
2:15 AM 71.6 °F 37.4 °F 29% 30.22 in 10.0 mi Calm Calm - N/A   Clear
2:35 AM 69.8 °F 39.2 °F 33% 30.22 in 10.0 mi West 4.6 mph - N/A   Clear
2:55 AM 73.4 °F 37.4 °F 27% 30.22 in 10.0 mi WNW 5.8 mph - N/A   Clear
3:15 AM 75.2 °F 35.6 °F 24% 30.22 in 10.0 mi East 3.5 mph - N/A   Clear
3:35 AM 68.0 °F 42.8 °F 40% 30.22 in 10.0 mi Calm Calm - N/A   Clear
3:54 AM 71.6 °F 37.4 °F 29% 30.23 in 10.0 mi Calm Calm - N/A   Clear
4:15 AM 71.6 °F 37.4 °F 29% 30.24 in 10.0 mi NNW 10.4 mph - N/A   Clear
4:35 AM 71.6 °F 37.4 °F 29% 30.24 in 10.0 mi NNW 11.5 mph - N/A   Clear
4:55 AM 69.8 °F 41.0 °F 35% 30.25 in 10.0 mi North 10.4 mph - N/A   Clear
5:15 AM 69.8 °F 42.8 °F 38% 30.25 in 10.0 mi North 8.1 mph - N/A   Clear
5:35 AM 69.8 °F 42.8 °F 38% 30.27 in 10.0 mi NW 5.8 mph - N/A   Clear
5:55 AM 68.0 °F 41.0 °F 37% 30.27 in 10.0 mi Calm Calm - N/A   Clear
6:47 AM 71.6 °F 42.8 °F 35% 30.27 in 40.0 mi Calm Calm - N/A   Partly Cloudy
7:50 AM 75.2 °F 44.6 °F 34% 30.28 in 60.0 mi SSW 5.8 mph - N/A   Partly Cloudy
8:47 AM 80.6 °F 44.6 °F 28% 30.28 in 50.0 mi Calm Calm - N/A   Partly Cloudy
9:47 AM 84.2 °F 39.2 °F 20% 30.28 in 50.0 mi Variable 3.5 mph - N/A   Partly Cloudy
10:49 AM 87.8 °F 39.2 °F 18% 30.26 in 50.0 mi ENE 5.8 mph - N/A   Partly Cloudy
11:56 AM 89.6 °F 37.4 °F 16% 30.25 in 50.0 mi East 5.8 mph - N/A   Partly Cloudy
12:55 PM 93.2 °F 37.4 °F 14% 30.23 in 50.0 mi SE 9.2 mph - N/A   Scattered Clouds
1:55 PM 95.0 °F 32.0 °F 11% 30.21 in 50.0 mi SE 10.4 mph 17.3 mph N/A   Scattered Clouds
4:50 PM 95.0 °F 30.2 °F 10% 30.15 in 50.0 mi North 5.8 mph - N/A   Mostly Cloudy
5:52 PM 95.0 °F 32.0 °F 11% 30.13 in 50.0 mi NW 11.5 mph - N/A   Mostly Cloudy
6:48 PM 89.6 °F 37.4 °F 16% 30.14 in 50.0 mi West 13.8 mph - N/A   Mostly Cloudy
6:51 PM 89.6 °F 37.4 °F 16% 30.14 in 50.0 mi West 13.8 mph - N/A Thunderstorm Thunderstorm
7:19 PM 86.0 °F 39.2 °F 19% 30.15 in 40.0 mi West 13.8 mph - N/A   Mostly Cloudy
7:50 PM 87.8 °F 35.6 °F 16% 30.15 in 40.0 mi NW 10.4 mph - N/A   Mostly Cloudy
8:50 PM 84.2 °F 37.4 °F 19% 30.16 in 20.0 mi West 16.1 mph 23.0 mph N/A   Mostly Cloudy
11:15 PM 77.0 °F 41.0 °F 28% 30.23 in 10.0 mi North 6.9 mph - N/A   Clear
11:35 PM 77.0 °F 41.0 °F 28% 30.23 in 10.0 mi NW 9.2 mph - N/A   Clear
11:55 PM 77.0 °F 41.0 °F 28% 30.24 in 10.0 mi NW 9.2 mph - N/A   Clear